[[{"header":{"parameterUnit":"m.s-1","parameterCategory":1,"la1":30.2991,"la2":30.254,"lo1":-89.0895,"lo2":-89.0444,"dy":0.0017,"dx":0.0017,"nx":28,"ny":28,"refTime":"2025-07-12T21:00:00:Z","depth":0,"parameterNumber":2,"parameterNumberName":"U-component_of_WINDS"},"data":[0,0,0,0,0,0,0,0,0,0,0,0,0,0,0,0,0,0,0,0,0,0,0,0,0,0,0,0,0,0,0,0,0,0,0,0,0,0,0,0,0,0,0,0,0,0,0,0,0,0,0,0,0,0,0,0,0,0,1.312,1.3121,0,1.3278,1.328,1.3281,1.3329,1.3328,1.3328,1.3327,1.3494,1.3499,1.3504,0,0,0,0,0,0,0,0,0,0,0,0,0,1.2862,1.2867,1.3119,1.3121,1.3123,1.3278,1.328,1.3282,1.3329,1.3328,1.3327,1.3326,1.3492,1.3498,1.3505,0,0,0,0,0,0,0,0,0,0,0,0,0,1.2993,1.2868,1.3119,1.3165,1.3171,1.3277,1.328,1.3282,1.333,1.3328,1.3327,1.3326,1.349,1.3498,1.3506,1.3578,0,0,1.3529,1.3533,0,0,0,0,0,0,0,0,1.2985,1.3002,1.3157,1.3162,1.3169,1.3282,1.325,1.3382,1.333,1.327,1.3327,1.3325,1.3425,1.3438,1.3471,1.3586,1.3593,1.353,1.3535,1.3538,1.354,0,0,0,0,0,0,0,1.2976,1.2995,1.3182,1.3159,1.3166,1.318,1.3197,1.3276,1.3352,1.3275,1.3279,1.3296,1.3428,1.3463,1.3475,1.3596,1.353,1.3537,1.3542,1.3545,1.3779,1.378,0,0,0,0,0,0,1.2958,1.2988,1.3177,1.3187,1.3072,1.3185,1.3205,1.3247,1.3352,1.3366,1.3297,1.3298,1.345,1.3466,1.3481,1.3573,1.3538,1.3546,1.355,1.3777,1.3779,1.3781,0,0,0,0,0,0,1.2953,1.2975,1.3171,1.3088,1.3114,1.3191,1.3239,1.3251,1.3286,1.3369,1.3383,1.3318,1.345,1.347,1.3553,1.3579,1.3549,1.3556,1.3775,1.3778,1.378,1.3756,0,0,0,0,0,0,1.2945,1.2973,1.3,1.3089,1.3118,1.3239,1.324,1.3255,1.3299,1.3301,1.3392,1.3406,1.345,1.3541,1.3561,1.3589,1.3562,1.3773,1.3776,1.3779,1.3755,1.3757,1.3759,0,0,0,0,0,1.2936,1.2988,1.3001,1.3024,1.3154,1.324,1.3258,1.3306,1.33,1.3329,1.3382,1.3403,1.3573,1.3549,1.3572,1.3603,1.3772,1.3775,1.3779,1.3754,1.3757,1.3759,0,0,0,0,0,0,1.2903,1.3001,1.3016,1.3098,1.316,1.3248,1.3286,1.3308,1.3374,1.3374,1.3433,1.3453,1.3532,1.3576,1.3548,1.3679,1.3673,1.3681,1.3647,1.365,1.3652,1.364,1.3569,0,0,0,0,0,1.2904,1.2965,1.3048,1.3113,1.3143,1.3209,1.3248,1.328,1.3347,1.3374,1.3434,1.3499,1.3568,1.3611,1.3679,1.3762,1.3782,1.3794,1.3796,1.3798,1.3804,1.3851,1.3857,1.3792,1.3792,1.3792,0,0,1.291,1.2971,1.3006,1.3108,1.3159,1.3222,1.3231,1.3297,1.3344,1.3385,1.3467,1.3512,1.359,1.3673,1.3713,1.3712,1.3827,1.3802,1.3802,1.3808,1.3855,1.3861,1.3867,1.3794,1.3794,1.3793,0,0,1.2951,1.3003,1.3063,1.3114,1.3191,1.3235,1.3249,1.3333,1.3365,1.3447,1.3479,1.3537,1.3653,1.3707,1.3749,1.381,1.3832,1.383,1.3842,1.3887,1.3892,1.3897,1.3918,1.3925,1.3836,1.3836,1.3836,0,1.2948,1.3042,1.3091,1.3155,1.3199,1.3237,1.3298,1.3346,1.3442,1.3472,1.347,1.3616,1.3671,1.3767,1.3781,1.3814,1.3833,1.382,1.3887,1.3892,1.3898,1.3919,1.3927,1.3836,1.3836,1.3836,1.3836,0,1.3035,1.31,1.3138,1.3228,1.3277,1.3339,1.3398,1.3442,1.3469,1.3513,1.3596,1.3663,1.3744,1.377,1.3798,1.387,1.3867,1.3875,1.3871,1.3902,1.3923,1.3932,1.3835,1.3835,1.3835,1.3835,0,0,1.306,1.3175,1.3189,1.323,1.3318,1.3369,1.3434,1.3511,1.3547,1.3612,1.3668,1.3765,1.3773,1.3821,1.3855,1.3895,1.3938,1.3898,1.3901,1.3903,1.4021,1.4014,1.4023,1.3953,1.3955,1.3956,1.4015,0,1.3113,1.3227,1.3272,1.3366,1.3426,1.3463,1.3519,1.358,1.3622,1.3681,1.3729,1.3796,1.3801,1.3831,1.3871,1.3924,1.3963,1.3921,1.4006,1.4009,1.3985,1.4034,1.4027,1.4079,1.4023,1.4025,1.4026,0,1.3189,1.3253,1.3352,1.3432,1.3459,1.3508,1.3582,1.3638,1.3708,1.3736,1.3789,1.3821,1.389,1.3881,1.3978,1.3949,1.3986,1.4018,1.4021,1.4031,1.4019,1.4045,1.4097,1.4105,1.4039,1.4038,1.4037,0,1.3198,1.3308,1.3381,1.3416,1.3511,1.3544,1.3586,1.3654,1.3698,1.3764,1.3793,1.3866,1.3906,1.3963,1.4014,1.4003,1.4107,1.4102,1.4133,1.4132,1.4153,1.4151,1.4212,1.4178,1.4177,1.4177,1.4177,0,1.3251,1.331,1.3386,1.3431,1.3499,1.3551,1.3616,1.3661,1.3721,1.3776,1.3813,1.3864,1.3929,1.3989,1.403,1.4104,1.4122,1.4147,1.4158,1.4144,1.4141,1.417,1.4168,1.4179,1.4179,1.4179,1.4178,0,1.3272,1.3325,1.3407,1.349,1.3512,1.3558,1.363,1.3676,1.3719,1.3789,1.3808,1.3878,1.395,1.4006,1.4101,1.4128,1.4207,1.4218,1.4182,1.4188,1.4215,1.4212,1.4297,1.4311,1.4266,1.4267,1.4267,0,1.3303,1.3349,1.3436,1.3474,1.3515,1.3577,1.3621,1.3675,1.3719,1.3801,1.3837,1.3912,1.3974,1.4088,1.4148,1.422,1.4234,1.4258,1.4245,1.423,1.4234,1.423,1.4235,1.426,1.426,1.426,1.4261,0,1.3352,1.3375,1.3436,1.3507,1.3558,1.3616,1.3676,1.3706,1.377,1.3819,1.3892,1.394,1.4035,1.4109,1.4187,1.4232,1.4257,1.4264,1.4275,1.4262,1.4239,1.4252,1.4187,1.4262,1.4262,1.4262,1.4262,1.4262,1.3378,1.3421,1.3488,1.3555,1.3605,1.3659,1.3706,1.3755,1.3816,1.3897,1.3925,1.4001,1.407,1.4177,1.4222,1.4282,1.4284,1.43,1.4304,1.4307,1.4305,1.4229,1.4297,1.4297,1.4297,1.4297,1.4297,0,1.3429,1.3474,1.3535,1.3616,1.3668,1.3686,1.3752,1.3796,1.3861,1.3922,1.3982,1.4066,1.4138,1.4202,1.4277,1.4313,1.4326,1.4331,1.4329,1.4339,1.43,1.4283,1.4319,1.4319,1.4319,1.4319,1.4319,1.4319,1.3461,1.3533,1.3565,1.3662,1.3708,1.378,1.3817,1.3867,1.3916,1.4008,1.4067,1.4108,1.4171,1.425,1.4317,1.4334,1.436,1.4361,1.4381,1.4344,1.4341,1.4339,1.4323,1.4366,1.4366,1.4415,1.4415,1.4416]},{"header":{"parameterUnit":"m.s-1","parameterCategory":1,"la1":30.2991,"la2":30.254,"lo1":-89.0895,"lo2":-89.0444,"dy":0.0017,"dx":0.0017,"nx":28,"ny":28,"refTime":"2025-07-12T21:00:00:Z","depth":0,"parameterNumber":3,"parameterNumberName":"V-component_of_WINDS"},"data":[0,0,0,0,0,0,0,0,0,0,0,0,0,0,0,0,0,0,0,0,0,0,0,0,0,0,0,0,0,0,0,0,0,0,0,0,0,0,0,0,0,0,0,0,0,0,0,0,0,0,0,0,0,0,0,0,0,0,2.8061,2.806,0,2.8015,2.8015,2.8014,2.8023,2.8024,2.8024,2.8025,2.7972,2.797,2.7968,0,0,0,0,0,0,0,0,0,0,0,0,0,2.8147,2.8146,2.8061,2.806,2.806,2.8016,2.8015,2.8014,2.8023,2.8024,2.8025,2.8026,2.7973,2.797,2.7968,0,0,0,0,0,0,0,0,0,0,0,0,0,2.8107,2.8145,2.8061,2.8059,2.8058,2.8016,2.8015,2.8014,2.8022,2.8024,2.8025,2.8026,2.7974,2.7971,2.7967,2.7922,0,0,2.7957,2.7956,0,0,0,0,0,0,0,0,2.8109,2.8103,2.8059,2.8059,2.8058,2.8026,2.8026,2.7983,2.8022,2.8036,2.8025,2.8027,2.7989,2.7984,2.7973,2.792,2.7918,2.7957,2.7955,2.7954,2.7953,0,0,0,0,0,0,0,2.8112,2.8105,2.8043,2.8059,2.8058,2.8058,2.8053,2.8018,2.8006,2.8035,2.8035,2.803,2.7988,2.7976,2.7972,2.7917,2.7957,2.7954,2.7952,2.7951,2.7822,2.7821,0,0,0,0,0,0,2.8116,2.8108,2.8044,2.8041,2.8087,2.8055,2.805,2.8035,2.8006,2.8003,2.8029,2.8031,2.7981,2.7976,2.797,2.7914,2.7954,2.7951,2.7949,2.7824,2.7822,2.7821,0,0,0,0,0,0,2.8118,2.811,2.8046,2.8075,2.8066,2.8052,2.8035,2.8033,2.8021,2.8002,2.7999,2.8019,2.7982,2.7974,2.7934,2.7912,2.7949,2.7946,2.7826,2.7823,2.7821,2.7802,0,0,0,0,0,0,2.812,2.8111,2.8095,2.8074,2.8065,2.8013,2.8034,2.8032,2.8016,2.8018,2.7992,2.7989,2.7982,2.7939,2.7931,2.7908,2.7944,2.7827,2.7825,2.7822,2.7805,2.78,2.7795,0,0,0,0,0,2.8124,2.8091,2.8095,2.8087,2.8045,2.8012,2.8006,2.8001,2.8015,2.7997,2.7985,2.7989,2.7916,2.7935,2.7926,2.7902,2.7829,2.7825,2.7822,2.7807,2.7801,2.7796,0,0,0,0,0,0,2.8108,2.8088,2.8092,2.8052,2.8034,2.8013,2.7992,2.7995,2.7971,2.7973,2.7966,2.796,2.7919,2.7907,2.7928,2.7856,2.7874,2.7869,2.7865,2.7859,2.7855,2.7858,2.7941,0,0,0,0,0,2.81,2.8076,2.806,2.8026,2.8017,2.8006,2.7991,2.7989,2.7969,2.796,2.7945,2.7923,2.7895,2.7877,2.785,2.7803,2.7796,2.7782,2.7778,2.7774,2.7769,2.7741,2.7734,2.781,2.781,2.781,0,0,2.8083,2.8069,2.8054,2.8022,2.8008,2.7981,2.7999,2.797,2.795,2.7955,2.7917,2.7904,2.788,2.7836,2.7815,2.7824,2.7747,2.777,2.7767,2.7764,2.7737,2.773,2.7723,2.7808,2.7808,2.7808,0,0,2.8038,2.8026,2.7996,2.7981,2.796,2.7953,2.7946,2.7925,2.7918,2.7879,2.7882,2.7857,2.7809,2.7791,2.7775,2.7723,2.7725,2.7714,2.7689,2.7662,2.7656,2.7651,2.763,2.7623,2.771,2.771,2.771,0,2.8018,2.7981,2.7979,2.795,2.7935,2.7941,2.7909,2.7894,2.7864,2.7853,2.7863,2.7803,2.7787,2.7738,2.7725,2.7713,2.7702,2.7717,2.7658,2.7652,2.7647,2.7627,2.762,2.7708,2.7709,2.7709,2.7709,0,2.7957,2.7931,2.7908,2.7882,2.7864,2.7833,2.7825,2.7807,2.7807,2.7798,2.7757,2.7738,2.7707,2.7695,2.7694,2.7645,2.7651,2.766,2.7678,2.7639,2.762,2.7612,2.7707,2.7707,2.7707,2.7708,0,0,2.7899,2.7873,2.7864,2.7852,2.7829,2.7807,2.7776,2.7748,2.7731,2.771,2.7682,2.7642,2.765,2.7632,2.7629,2.7605,2.7562,2.7616,2.7616,2.7605,2.7505,2.7497,2.7489,2.7565,2.7563,2.7562,2.7506,0,2.7851,2.7799,2.7796,2.7747,2.7722,2.7727,2.7699,2.7681,2.7672,2.7647,2.7635,2.7606,2.762,2.7609,2.7586,2.7573,2.7542,2.7577,2.7536,2.7534,2.754,2.7479,2.7471,2.742,2.7499,2.7498,2.7497,0,2.7787,2.7766,2.7715,2.7695,2.7684,2.766,2.7633,2.761,2.7588,2.7583,2.7563,2.7563,2.7528,2.7549,2.75,2.7523,2.7506,2.7497,2.7495,2.7489,2.7512,2.747,2.7404,2.7395,2.7486,2.7487,2.7488,0,2.7748,2.7707,2.7671,2.766,2.7636,2.7619,2.7607,2.7587,2.757,2.7546,2.7534,2.7505,2.7489,2.7466,2.7456,2.7473,2.7407,2.7427,2.7399,2.7399,2.7383,2.7384,2.7311,2.7375,2.7376,2.7376,2.7376,0,2.7693,2.7661,2.7653,2.7631,2.7595,2.7591,2.7555,2.7544,2.7526,2.75,2.7502,2.7477,2.7467,2.744,2.7432,2.7391,2.7384,2.7377,2.7375,2.7375,2.7376,2.7363,2.7365,2.7374,2.7374,2.7375,2.7375,0,2.7643,2.7637,2.7597,2.7578,2.7573,2.7547,2.7529,2.7506,2.7498,2.7464,2.7456,2.7442,2.7409,2.7398,2.7359,2.7353,2.7305,2.7307,2.7313,2.7312,2.7284,2.7286,2.7198,2.7186,2.726,2.726,2.7259,0,2.7607,2.7583,2.7562,2.7546,2.7534,2.7508,2.7491,2.7486,2.7467,2.7441,2.742,2.7389,2.7363,2.7311,2.7295,2.7264,2.7264,2.7235,2.7259,2.726,2.7261,2.7262,2.7258,2.723,2.7229,2.7229,2.7228,0,2.7544,2.7542,2.7519,2.7494,2.7474,2.7453,2.7433,2.7419,2.7411,2.739,2.7358,2.7338,2.7298,2.7266,2.7234,2.722,2.7221,2.7221,2.7213,2.7212,2.7216,2.7212,2.7299,2.7223,2.7223,2.7224,2.7224,2.7224,2.7499,2.7477,2.7459,2.7432,2.7417,2.7398,2.7376,2.7365,2.7339,2.7308,2.7306,2.7271,2.7248,2.7206,2.719,2.716,2.7168,2.7156,2.7153,2.715,2.7146,2.7223,2.7155,2.7155,2.7155,2.7155,2.7155,0,2.7434,2.7423,2.7399,2.7372,2.735,2.7357,2.7335,2.7315,2.7285,2.7265,2.724,2.7202,2.7171,2.7153,2.7121,2.71,2.71,2.7092,2.7092,2.7088,2.7142,2.7152,2.7092,2.7092,2.7092,2.7092,2.7092,2.7092,2.7398,2.7361,2.7357,2.7312,2.73,2.7268,2.7254,2.7236,2.722,2.7178,2.7153,2.7143,2.7122,2.7089,2.7059,2.7054,2.7041,2.7032,2.7028,2.7078,2.7085,2.7091,2.71,2.703,2.703,2.6976,2.6975,2.6975]}]]